Location: ???????
(55.4362°N, 38.1183°E)
Time: 02:22:24
(UTC+00:00)

METEOR M2 - Pass Details

Date: 29 November 2021
Orbit: 818 x 827 km, 98.4° (Epoch: 28 January)

Event Time Altitude Azimuth Distance (km) Brightness Sun altitude
Rises 15:58:44 0° 172° (S) 3,357 ? -23.6°
Reaches altitude 10° 16:01:06 10° 175° (S) 2,428 ? -24.0°
Maximum altitude 16:06:27 65° 257° (WSW) 908 ? -24.7°
Drops below altitude 10° 16:11:50 10° 340° (NNW) 2,441 ? -25.5°
Sets 16:14:14 0° 343° (NNW) 3,377 ? -25.8°
